Temp
12 12 11 11 11 11 10 10 10 9 9 9 8 8 8 8 8 8 8 9 9 9 8 8 8 7 7 6 6 6 7 6
12 11 11 11 11 10 10 10 10 9 9 9 8 7 8 8 8 8 8 8 8 8 8 8 8 7 7 6 6 4 5 6
11 11 11 11 11 10 10 10 10 9 9 8 8 7 7 8 8 8 8 8 8 8 8 8 8 7 7 6 5 4 4 8
11 11 11 11 11 10 10 10 10 10 9 8 8 7 7 8 8 8 8 8 8 8 8 8 8 8 7 7 7 7 7 7
10 10 10 11 11 10 10 10 10 10 9 9 8 8 6 7 8 8 8 8 8 8 8 8 8 8 7 7 7 7 8 7
9 10 10 10 10 11 10 10 10 10 10 9 8 8 7 7 8 8 8 8 8 8 8 8 8 8 7 7 7 7 8 7
8 8 10 9 10 10 10 9 10 10 10 9 8 8 7 7 7 8 8 8 8 8 8 8 8 8 8 8 7 7 8 7
8 8 8 9 9 10 10 9 9 10 10 9 8 8 7 7 7 8 8 8 8 8 8 8 8 8 8 8 7 7 8 8
8 8 8 9 9 9 9 9 9 9 9 10 8 8 7 7 7 7 8 7 7 7 8 8 8 8 8 7 7 7 8 7
7 8 8 7 8 9 9 9 9 9 9 9 8 7 7 7 6 7 8 7 7 7 8 7 8 8 7 7 7 7 7 7
7 7 7 7 7 8 8 8 9 9 9 9 8 7 7 7 7 7 8 8 7 7 7 7 8 8 7 7 7 7 7 7
7 7 6 7 7 7 7 7 8 8 9 9 9 8 7 7 7 6 7 7 7 7 7 7 7 7 7 7 7 7 7 7
5 6 6 6 6 6 7 7 8 8 8 9 9 8 7 7 7 6 8 7 7 7 7 7 7 7 7 7 7 7 7 7
4 5 5 5 5 6 6 7 7 8 8 8 9 8 8 7 7 7 7 8 7 7 7 7 7 7 7 7 7 7 7 7
4 4 3 5 5 6 5 6 6 7 8 8 8 8 8 7 7 7 7 7 7 7 7 7 7 7 7 7 7 7 7 7
3 2 3 4 4 5 5 6 7 6 7 7 8 8 8 8 7 7 7 7 7 7 7 7 7 7 7 6 6 6 7 6
2 1 3 4 4 3 5 5 5 5 6 7 6 8 8 8 8 6 6 6 7 6 7 7 7 7 6 6 6 6 6 6
2 2 1 1 2 3 3 5 5 5 5 6 4 6 7 8 8 7 7 7 6 6 6 6 6 6 6 6 6 5 6 6
0 1 1 1 3 3 3 4 5 5 5 6 5 4 7 7 7 7 7 7 7 7 7 6 6 5 6 6 6 5 5 4
-1 -0 1 1 1 3 3 5 4 5 5 5 6 6 5 7 7 7 8 7 7 7 7 7 6 6 6 5 5 5 5 4
Height
3145 3146 3147 3149 3151 3152 3154 3155 3156 3158 3160 3162 3165 3169 3172 3174 3176 3179 3181 3182 3182 3183 3183 3185 3186 3187 3188 3190 3191 3192 3194 3197
3138 3142 3142 3144 3147 3149 3150 3151 3152 3154 3157 3159 3162 3165 3169 3172 3175 3177 3180 3182 3182 3183 3184 3185 3187 3188 3189 3191 3192 3195 3193 3196
3130 3135 3136 3138 3142 3144 3146 3148 3148 3150 3153 3156 3158 3161 3165 3169 3172 3175 3178 3181 3182 3184 3185 3186 3187 3189 3191 3193 3193 3194 3195 3197
3124 3128 3131 3133 3135 3138 3140 3142 3144 3145 3148 3151 3153 3157 3161 3165 3170 3173 3176 3178 3181 3183 3185 3186 3187 3189 3191 3194 3194 3195 3194 3198
3119 3121 3124 3126 3129 3132 3134 3137 3139 3139 3142 3145 3148 3151 3156 3160 3165 3169 3172 3175 3179 3181 3183 3186 3187 3189 3192 3193 3195 3196 3197 3199
3112 3114 3116 3119 3121 3125 3127 3130 3132 3134 3136 3139 3141 3145 3149 3154 3160 3165 3169 3173 3177 3180 3183 3185 3187 3189 3191 3193 3195 3196 3197 3201
3100 3104 3108 3110 3112 3117 3120 3122 3125 3127 3129 3132 3134 3138 3144 3147 3155 3160 3165 3170 3175 3178 3181 3184 3187 3188 3190 3192 3194 3195 3196 3201
3103 3095 3100 3102 3106 3109 3112 3114 3118 3119 3122 3125 3127 3132 3138 3142 3149 3155 3160 3166 3171 3176 3179 3182 3185 3187 3189 3191 3193 3195 3196 3199
3094 3089 3089 3093 3098 3101 3104 3107 3111 3112 3115 3118 3121 3126 3132 3137 3144 3150 3156 3162 3168 3172 3175 3178 3182 3185 3187 3190 3192 3194 3195 3199
3084 3088 3080 3083 3089 3093 3097 3099 3104 3106 3109 3112 3114 3118 3125 3130 3138 3145 3150 3158 3163 3168 3171 3175 3179 3182 3185 3188 3190 3193 3194 3197
3073 3076 3073 3071 3080 3083 3088 3091 3095 3098 3102 3106 3109 3112 3118 3124 3131 3139 3143 3153 3157 3163 3167 3172 3176 3179 3182 3185 3188 3190 3193 3195
3062 3065 3066 3061 3067 3072 3078 3084 3086 3091 3092 3097 3100 3104 3111 3117 3124 3131 3137 3145 3151 3157 3161 3167 3172 3176 3178 3181 3185 3187 3190 3192
3044 3049 3055 3051 3053 3061 3065 3069 3074 3078 3082 3089 3092 3096 3102 3109 3116 3124 3129 3137 3145 3151 3155 3161 3165 3170 3173 3177 3180 3183 3186 3189
3035 3034 3042 3042 3044 3048 3055 3060 3065 3070 3076 3081 3086 3089 3093 3101 3107 3115 3122 3130 3136 3142 3147 3154 3158 3163 3167 3172 3175 3178 3181 3185
3007 3016 3022 3030 3035 3035 3044 3050 3053 3058 3063 3069 3075 3081 3085 3093 3100 3107 3116 3122 3130 3135 3140 3146 3152 3157 3158 3164 3167 3169 3176 3180
2995 2998 3002 3015 3024 3024 3028 3031 3033 3044 3053 3058 3060 3072 3079 3084 3092 3098 3107 3114 3123 3128 3133 3138 3144 3148 3152 3158 3163 3166 3169 3174
2988 2989 2992 2994 3005 3002 3012 3025 3027 3037 3043 3048 3054 3062 3069 3075 3082 3089 3096 3105 3114 3121 3124 3128 3134 3141 3145 3152 3155 3158 3163 3167
2976 2979 2983 2984 2992 2993 3002 3012 3020 3026 3032 3036 3040 3042 3058 3065 3072 3080 3087 3094 3101 3109 3116 3121 3126 3132 3138 3141 3146 3150 3155 3160
2964 2969 2975 2976 2979 2985 2988 2998 3008 3015 3023 3026 3033 3035 3046 3056 3062 3070 3076 3084 3091 3098 3103 3109 3115 3121 3127 3132 3138 3142 3147 3152
2958 2959 2964 2969 2974 2975 2979 2989 2999 3003 3012 3016 3022 3031 3038 3048 3053 3059 3068 3075 3081 3088 3093 3100 3105 3110 3117 3123 3128 3134 3138 3142
Wind_Speed
26 24 26 22 19 15 12 12 9 12 17 20 21 19 18 17 15 13 11 10 9 10 11 12 13 14 15 15 15 15 18 16
28 27 30 27 23 19 16 16 14 13 19 22 24 22 21 20 18 16 14 12 11 10 12 13 14 15 15 16 15 15 12 18
32 31 34 30 27 22 19 18 19 16 22 26 27 26 25 25 23 20 18 15 13 12 13 14 15 16 16 16 18 23 15 18
37 34 36 35 31 27 24 22 23 20 24 30 32 31 29 28 27 24 23 19 17 15 14 15 16 16 17 17 17 15 19 19
38 37 36 39 36 33 29 25 25 24 25 32 36 37 34 32 31 29 27 25 22 19 17 15 16 17 17 18 15 15 13 18
30 33 37 41 41 38 34 29 28 26 26 32 39 42 40 37 35 33 31 28 25 22 18 17 17 18 18 17 18 16 14 14
42 35 37 41 43 42 40 34 31 28 26 31 40 45 44 41 37 37 34 31 27 24 21 19 18 18 18 17 18 18 17 15
37 43 40 40 44 45 44 38 34 30 25 28 39 44 45 44 39 39 37 34 31 27 23 22 20 20 18 18 18 18 16 17
40 44 45 46 42 46 47 42 38 34 27 27 38 44 47 47 41 40 40 36 33 29 27 27 23 22 21 19 19 17 17 16
40 42 49 47 45 43 47 46 41 37 31 27 36 43 48 49 45 41 41 39 36 32 31 28 25 23 22 22 21 19 18 16
43 41 52 53 48 46 45 49 45 41 35 30 34 41 48 49 48 42 43 41 38 35 33 29 27 27 25 24 23 22 21 19
40 50 41 58 49 48 45 50 48 45 43 36 34 38 45 49 50 43 43 42 41 38 36 30 30 30 29 28 26 26 24 23
42 40 56 47 55 54 50 54 52 51 50 44 36 39 43 49 50 46 45 42 40 38 38 33 31 33 34 31 30 30 29 28
46 40 46 56 54 58 53 51 57 53 48 46 42 36 42 48 49 48 46 44 42 41 43 36 34 37 36 34 34 34 33 31
47 52 31 53 53 60 53 56 57 56 54 51 47 41 38 44 47 48 45 41 45 46 44 46 43 41 41 38 39 39 33 34
51 56 37 33 48 58 65 61 60 62 57 54 52 46 42 37 42 46 46 47 48 49 46 46 49 48 43 40 38 36 38 33
51 51 54 49 35 52 65 70 49 54 56 57 54 52 46 44 41 39 44 48 51 48 50 51 50 49 49 45 49 48 44 47
48 45 48 52 34 55 53 63 58 54 63 61 65 55 50 49 47 44 42 42 47 50 49 49 49 49 50 51 50 47 49 49
47 43 49 50 46 51 48 53 59 59 59 69 67 54 53 57 49 55 49 43 44 45 47 50 52 51 52 53 52 52 51 48
44 43 46 45 50 52 46 53 57 54 53 62 69 67 59 58 57 57 51 47 51 48 46 45 44 46 48 55 56 56 54 54
Wind_Direction
250 251 246 241 237 239 252 253 268 241 218 211 200 196 200 196 192 189 185 175 161 154 151 154 153 155 159 164 162 159 151 161
254 243 240 241 245 243 251 251 257 248 222 212 203 199 202 202 198 193 195 188 172 165 161 159 158 157 160 166 147 114 165 176
250 239 234 236 242 243 247 253 253 246 223 213 204 202 203 204 202 197 199 194 184 177 171 166 165 162 165 168 164 144 181 160
241 240 232 235 236 243 243 250 252 251 231 215 207 204 205 205 205 202 201 198 192 186 179 177 171 169 170 177 182 176 177 164
238 240 234 234 231 239 241 246 246 249 239 223 211 206 206 207 205 206 204 201 197 193 188 185 178 175 178 182 176 182 188 163
259 238 240 236 232 228 238 240 240 243 243 231 216 212 205 208 204 208 209 206 203 200 193 191 188 182 187 188 180 180 189 177
260 253 236 236 234 228 234 235 233 235 237 235 222 216 207 209 205 208 210 210 207 205 199 199 197 193 193 191 195 190 188 185
243 258 248 241 236 234 233 231 225 231 230 232 227 219 209 212 207 208 211 212 210 208 207 208 205 203 204 196 203 202 205 190
231 250 256 245 234 235 231 230 223 227 227 227 225 221 213 213 211 211 213 213 212 209 211 213 210 213 209 207 210 208 215 195
231 237 250 251 240 235 230 229 226 227 225 223 222 220 217 214 214 212 217 213 214 212 214 218 215 218 218 216 216 215 220 208
238 233 244 249 246 239 228 227 226 223 225 223 219 221 218 216 217 212 218 214 216 216 217 220 223 224 222 225 223 222 223 223
243 236 240 243 241 241 232 225 228 224 225 220 218 218 221 218 219 214 217 215 217 217 221 218 224 228 227 224 228 229 227 228
235 236 236 242 241 237 230 222 222 225 223 221 220 216 218 220 220 214 216 216 218 220 223 221 223 229 231 225 227 231 233 230
247 230 239 237 239 242 232 227 224 224 228 220 218 215 215 219 220 217 215 212 211 218 224 218 226 228 232 235 231 232 235 236
239 232 251 228 237 240 232 228 225 221 223 221 215 214 211 217 220 222 218 215 217 216 221 220 222 228 231 235 231 230 232 238
238 238 222 230 235 237 234 229 220 221 220 221 216 212 214 215 219 223 221 219 223 224 221 223 227 227 229 238 237 238 234 235
243 238 227 215 224 229 233 235 227 223 226 222 222 217 216 217 223 223 223 225 228 225 227 226 226 226 231 231 234 239 235 237
242 242 246 220 229 233 236 233 231 228 222 225 229 213 215 212 224 227 233 228 229 231 231 233 232 229 229 231 234 240 236 247
242 240 234 235 217 230 223 234 232 230 227 225 227 229 221 216 215 222 232 232 235 233 232 234 237 235 231 233 234 233 236 247
246 243 231 229 240 229 216 225 228 231 233 227 227 230 226 222 219 223 226 235 233 234 236 239 242 245 244 236 237 240 244 253